GW3308 Weather Reports


time (UTC)temp
C
wind
direction
speed
KPH
gust
KPH
rain 1hr
cm
rain 24hr
cm
rain mn
cm
humidity
%
barometer
mb
20260509162009 10 246 3.2 16.1 0.00 0.00 0.00 64 1001.2
20260509161517 10 248 6.4 16.1 0.00 0.00 0.00 64 1001.0
20260509161008 9 200 1.6 12.9 0.00 0.00 0.00 64 1000.8
20260509160507 9 295 1.6 12.9 0.00 0.00 0.00 65 1000.8
20260509160021 9 232 3.2 8.0 0.00 0.00 0.00 65 1001.0
20260509155508 9 245 1.6 8.0 0.00 0.00 0.00 65 1000.9
20260509155008 9 225 3.2 6.4 0.00 0.00 0.00 65 1000.9
20260509154525 9 231 3.2 6.4 0.00 0.00 0.00 64 1000.9
20260509154011 9 265 1.6 6.4 0.00 0.00 0.00 65 1000.7
20260509153508 9 296 0.0 6.4 0.00 0.00 0.00 65 1000.6
20260509153046 9 219 0.0 3.2 0.00 0.00 0.00 66 1000.5
20260509152504 9 255 0.0 6.4 0.00 0.00 0.00 66 1000.5
20260509152004 9 221 1.6 11.3 0.00 0.00 0.00 66 1000.5
20260509151512 9 209 0.0 11.3 0.00 0.00 0.00 66 1000.6
20260509151003 9 227 1.6 9.7 0.00 0.00 0.00 67 1000.7
20260509150512 9 231 1.6 12.9 0.00 0.00 0.00 66 1000.7
20260509150021 9 252 1.6 14.5 0.00 0.00 0.00 66 1000.8
20260509145508 9 263 6.4 19.3 0.00 0.00 0.00 65 1000.8
20260509145007 9 273 4.8 19.3 0.00 0.00 0.00 65 1000.8
20260509144524 9 217 4.8 16.1 0.00 0.00 0.00 66 1000.7
20260509144007 10 304 4.8 14.5 0.00 0.00 0.00 67 1000.5
20260509143508 10 92 3.2 25.7 0.00 0.00 0.00 67 1000.4
20260509143024 10 163 11.3 25.7 0.00 0.00 0.00 66 1000.3
20260509142509 10 248 9.7 22.5 0.00 0.00 0.00 66 1000.1
20260509142012 11 145 6.4 22.5 0.00 0.00 0.00 66 1000.0
20260509141535 11 192 11.3 20.9 0.00 0.00 0.00 65 999.7
20260509141010 11 194 6.4 19.3 0.00 0.00 0.00 66 999.5
20260509140506 11 319 0.0 19.3 0.00 0.00 0.00 67 999.0
20260509140016 11 226 4.8 19.3 0.00 0.00 0.00 67 998.9
20260509135505 11 222 4.8 16.1 0.00 0.00 0.00 70 998.8
20260509135005 11 229 4.8 17.7 0.00 0.00 0.00 70 998.7
20260509134522 11 225 6.4 17.7 0.00 0.00 0.00 71 998.7
20260509134009 11 290 6.4 17.7 0.00 0.00 0.00 71 998.6
20260509133506 11 246 8.0 16.1 0.00 0.00 0.00 72 998.7
20260509133025 11 225 6.4 14.5 0.00 0.00 0.00 72 998.5
20260509132512 11 252 4.8 19.3 0.00 0.00 0.00 72 998.4
20260509132009 11 272 8.0 19.3 0.00 0.00 0.00 72 998.3
20260509131527 11 217 3.2 17.7 0.00 0.00 0.00 73 998.2
20260509131010 11 233 8.0 20.9 0.00 0.00 0.00 73 998.1
20260509130509 11 230 4.8 20.9 0.00 0.00 0.00 73 998.2
20260509130027 12 246 4.8 16.1 0.00 0.00 0.00 73 998.0
20260509125506 12 251 4.8 17.7 0.00 0.00 0.00 74 998.0
20260509125007 12 221 6.4 17.7 0.00 0.00 0.00 73 998.0
20260509124521 12 281 4.8 16.1 0.00 0.00 0.00 74 998.2
20260509124008 11 259 8.0 20.9 0.00 0.00 0.00 75 997.9
20260509123508 11 221 6.4 20.9 0.00 0.00 0.00 76 998.0
20260509123025 11 240 4.8 11.3 0.00 0.00 0.00 75 998.0
20260509122508 11 275 3.2 11.3 0.00 0.00 0.00 75 998.2
20260509122008 11 237 1.6 17.7 0.00 0.00 0.00 76 998.3
20260509121526 11 242 3.2 17.7 0.00 0.00 0.00 76 998.2
20260509121015 11 224 3.2 14.5 0.00 0.00 0.00 76 998.2
20260509120509 11 248 4.8 11.3 0.00 0.00 0.00 75 998.1
20260509120028 10 230 4.8 17.7 0.00 0.00 0.00 75 998.0
20260509115509 10 272 4.8 17.7 0.00 0.00 0.00 75 998.2
20260509115012 10 255 4.8 9.7 0.00 0.00 0.00 75 998.3
20260509114516 10 261 0.0 14.5 0.00 0.00 0.00 74 998.4
20260509114007 10 221 4.8 14.5 0.00 0.00 0.00 73 998.3
20260509113507 10 223 4.8 12.9 0.00 0.00 0.00 73 998.3
20260509113020 10 219 4.8 8.0 0.00 0.00 0.00 73 998.3
20260509112508 10 232 1.6 6.4 0.00 0.00 0.00 72 998.3
20260509112010 10 229 3.2 12.9 0.00 0.00 0.00 72 998.4
20260509111526 10 254 3.2 12.9 0.00 0.00 0.00 71 998.3
20260509111008 10 198 4.8 12.9 0.00 0.00 0.00 70 998.4
20260509110510 10 240 4.8 11.3 0.00 0.00 0.00 70 998.3
20260509110025 10 206 3.2 8.0 0.00 0.00 0.00 69 998.3
20260509105511 10 209 3.2 6.4 0.00 0.00 0.00 69 998.4
20260509105011 10 200 1.6 11.3 0.00 0.00 0.00 69 998.4
20260509104528 10 196 3.2 11.3 0.00 0.00 0.00 67 998.6
20260509104005 10 182 3.2 12.9 0.00 0.00 0.00 67 998.6
20260509103503 11 172 3.2 12.9 0.00 0.00 0.00 66 998.6
20260509103017 11 234 6.4 12.9 0.00 0.00 0.00 66 998.8
20260509102506 11 194 3.2 11.3 0.00 0.00 0.00 66 998.9
20260509102006 11 189 3.2 11.3 0.00 0.00 0.00 65 998.9
20260509101506 11 236 1.6 11.3 0.00 0.00 0.00 64 998.8
20260509101002 11 178 3.2 14.5 0.00 0.00 0.00 65 998.8
20260509100504 11 199 3.2 14.5 0.00 0.00 0.00 64 998.7
20260509100006 11 200 4.8 9.7 0.00 0.00 0.00 63 998.8
20260509095504 11 181 4.8 16.1 0.00 0.00 0.00 63 998.8
20260509095005 12 254 8.0 16.1 0.00 0.00 0.00 62 999.0
20260509094514 12 188 8.0 17.7 0.00 0.00 0.00 62 999.1
20260509094003 12 213 6.4 17.7 0.00 0.00 0.00 62 999.1
20260509093507 12 245 4.8 16.1 0.00 0.00 0.00 61 999.2
20260509093017 11 256 3.2 12.9 0.00 0.00 0.00 59 998.8
20260509092505 11 207 4.8 14.5 0.00 0.00 0.00 59 998.9
20260509092006 11 202 4.8 14.5 0.00 0.00 0.00 58 998.8
20260509091520 11 253 3.2 14.5 0.00 0.00 0.00 57 999.1
20260509091006 11 199 4.8 12.9 0.00 0.00 0.00 56 999.2
20260509090507 11 231 1.6 11.3 0.00 0.00 0.00 56 999.3
20260509090008 11 190 3.2 11.3 0.00 0.00 0.00 55 999.3
20260509085503 11 261 1.6 11.3 0.00 0.00 0.00 56 999.3
20260509085004 11 186 0.0 4.8 0.00 0.00 0.00 56 999.5
20260509084508 11 186 0.0 8.0 0.00 0.00 0.00 56 999.6
20260509084006 11 202 0.0 8.0 0.00 0.00 0.00 57 999.7
20260509083504 11 202 1.6 12.9 0.00 0.00 0.00 56 999.7
20260509083012 11 223 1.6 12.9 0.00 0.00 0.00 56 999.7
20260509082504 11 211 3.2 11.3 0.00 0.00 0.00 54 999.9
20260509082008 11 199 4.8 12.9 0.00 0.00 0.00 53 1000.2
20260509081521 11 209 6.4 14.5 0.00 0.00 0.00 52 1000.2
20260509081007 11 207 3.2 14.5 0.00 0.00 0.00 51 1000.2
20260509080507 11 261 3.2 14.5 0.00 0.00 0.00 50 1000.3
20260509080020 11 218 4.8 14.5 0.00 0.00 0.00 49 1000.2
20260509075507 11 220 4.8 12.9 0.00 0.00 0.00 47 1000.3
20260509075006 11 213 3.2 8.0 0.00 0.00 0.00 45 1000.3
20260509074507 11 209 4.8 11.3 0.00 0.00 0.00 44 1000.3
20260509074004 11 243 4.8 11.3 0.00 0.00 0.00 43 1000.4
20260509073503 11 216 4.8 11.3 0.00 0.00 0.00 42 1000.5
20260509073025 11 211 1.6 11.3 0.00 0.00 0.00 42 1000.5
20260509072506 11 206 3.2 11.3 0.00 0.00 0.00 39 1000.7
20260509072006 11 201 3.2 8.0 0.00 0.00 0.00 39 1000.8
20260509071515 11 223 1.6 8.0 0.00 0.00 0.00 39 1000.9
20260509071007 11 207 3.2 12.9 0.00 0.00 0.00 37 1001.1
20260509070507 11 217 3.2 12.9 0.00 0.00 0.00 37 1001.2
20260509070020 11 204 3.2 14.5 0.00 0.00 0.00 36 1001.4
20260509065508 12 225 8.0 14.5 0.00 0.00 0.00 35 1001.5
20260509065007 12 249 3.2 16.1 0.00 0.00 0.00 37 1001.5
20260509064522 12 216 6.4 16.1 0.00 0.00 0.00 34 1001.7
20260509064013 12 227 1.6 8.0 0.00 0.00 0.00 36 1001.7
20260509063509 12 203 3.2 8.0 0.00 0.00 0.00 36 1001.8
20260509063021 12 192 3.2 12.9 0.00 0.00 0.00 36 1001.9
20260509062505 12 196 4.8 12.9 0.00 0.00 0.00 38 1002.2
20260509062008 12 206 0.0 8.0 0.00 0.00 0.00 40 1002.3
20260509061516 12 234 3.2 11.3 0.00 0.00 0.00 39 1002.4
20260509061006 12 231 3.2 12.9 0.00 0.00 0.00 39 1002.5
20260509060505 12 223 4.8 12.9 0.00 0.00 0.00 39 1002.5
20260509060026 12 254 4.8 12.9 0.00 0.00 0.00 41 1002.5
20260509055507 12 214 4.8 11.3 0.00 0.00 0.00 40 1002.5
20260509055008 12 223 3.2 11.3 0.00 0.00 0.00 40 1002.4
20260509054524 12 214 4.8 12.9 0.00 0.00 0.00 39 1002.4
20260509054009 12 252 3.2 14.5 0.00 0.00 0.00 38 1002.3
20260509053507 12 217 3.2 14.5 0.00 0.00 0.00 38 1002.5
20260509053032 12 225 4.8 14.5 0.00 0.00 0.00 37 1002.5
20260509052506 12 246 4.8 16.1 0.00 0.00 0.00 37 1002.6
20260509052006 12 232 8.0 16.1 0.00 0.00 0.00 37 1002.6
20260509051515 11 210 1.6 9.7 0.00 0.00 0.00 39 1002.7
20260509051004 11 200 3.2 9.7 0.00 0.00 0.00 40 1002.7
20260509050504 11 210 1.6 6.4 0.00 0.00 0.00 41 1002.9
20260509050016 11 185 3.2 6.4 0.00 0.00 0.00 39 1003.0
20260509045506 11 246 1.6 9.7 0.00 0.00 0.00 40 1003.1
20260509045006 11 254 3.2 9.7 0.00 0.00 0.00 40 1003.2
20260509044521 12 205 0.0 4.8 0.00 0.00 0.00 40 1003.3
20260509044010 12 213 0.0 4.8 0.00 0.00 0.00 40 1003.4
20260509043506 12 223 0.0 4.8 0.00 0.00 0.00 38 1003.4
20260509043038 12 216 1.6 4.8 0.00 0.00 0.00 38 1003.4
20260509042507 12 188 0.0 8.0 0.00 0.00 0.00 38 1003.6
20260509042007 12 202 1.6 8.0 0.00 0.00 0.00 39 1003.8
20260509041524 12 202 1.6 8.0 0.00 0.00 0.00 38 1004.0
20260509041008 12 288 1.6 16.1 0.00 0.00 0.00 37 1004.0
20260509040502 12 288 6.4 16.1 0.00 0.00 0.00 36 1004.0
20260509040013 12 217 3.2 8.0 0.00 0.00 0.00 37 1004.0
20260509035507 12 253 1.6 8.0 0.00 0.00 0.00 37 1004.0
20260509035007 12 227 1.6 8.0 0.00 0.00 0.00 38 1004.0
20260509034520 12 197 1.6 9.7 0.00 0.00 0.00 37 1004.0
20260509034006 12 232 3.2 9.7 0.00 0.00 0.00 38 1004.1
20260509033510 12 208 3.2 9.7 0.00 0.00 0.00 37 1004.1
20260509033023 12 235 4.8 9.7 0.00 0.00 0.00 38 1004.1
20260509032508 12 212 3.2 9.7 0.00 0.00 0.00 39 1004.1
20260509032011 12 209 3.2 8.0 0.00 0.00 0.00 40 1004.2
20260509031529 12 209 1.6 6.4 0.00 0.00 0.00 40 1004.2
20260509031011 12 217 0.0 6.4 0.00 0.00 0.00 40 1004.2
20260509030509 12 257 0.0 0.0 0.00 0.00 0.00 41 1004.3
20260509030027 12 263 0.0 0.0 0.00 0.00 0.00 41 1004.3
20260509025507 12 196 0.0 1.6 0.00 0.00 0.00 41 1004.4
20260509025009 12 232 0.0 3.2 0.00 0.00 0.00 39 1004.4
20260509024519 12 232 0.0 3.2 0.00 0.00 0.00 42 1004.5
20260509024008 12 208 0.0 4.8 0.00 0.00 0.00 41 1004.5
20260509023506 12 208 0.0 4.8 0.00 0.00 0.00 40 1004.5
20260509023025 12 235 0.0 4.8 0.00 0.00 0.00 40 1004.5
20260509022508 12 235 1.6 4.8 0.00 0.00 0.00 39 1004.5
20260509022010 12 226 0.0 3.2 0.00 0.00 0.00 41 1004.4
20260509021524 12 226 0.0 6.4 0.00 0.00 0.00 41 1004.4
20260509021009 12 226 0.0 6.4 0.00 0.00 0.00 40 1004.5
20260509020506 12 227 0.0 0.0 0.00 0.00 0.00 41 1004.5
20260509020027 12 239 0.0 0.0 0.00 0.00 0.00 43 1004.5
20260509015508 12 225 0.0 0.0 0.00 0.00 0.00 42 1004.5
20260509015011 12 225 0.0 0.0 0.00 0.00 0.00 42 1004.5
20260509014528 12 225 0.0 0.0 0.00 0.00 0.00 42 1004.5
20260509014005 12 225 0.0 0.0 0.00 0.00 0.00 40 1004.5
20260509013509 12 225 0.0 0.0 0.00 0.00 0.00 39 1004.5
20260509013017 13 225 0.0 0.0 0.00 0.00 0.00 39 1004.6
20260509012507 13 237 0.0 6.4 0.00 0.00 0.00 38 1004.5
20260509012003 13 227 0.0 9.7 0.00 0.00 0.00 38 1004.5
20260509011504 13 220 1.6 9.7 0.00 0.00 0.00 36 1004.6
20260509011004 13 233 0.0 6.4 0.00 0.00 0.00 37 1004.7
20260509010504 13 233 1.6 6.4 0.00 0.00 0.00 35 1004.5
20260509010007 13 223 0.0 8.0 0.00 0.00 0.00 36 1004.5
20260509005504 13 230 4.8 8.0 0.00 0.00 0.00 34 1004.6
20260509005003 13 223 1.6 8.0 0.00 0.00 0.00 35 1004.5
20260509004513 13 250 1.6 6.4 0.00 0.00 0.00 36 1004.5
20260509004003 13 236 1.6 6.4 0.00 0.00 0.00 36 1004.4
20260509003504 13 227 1.6 6.4 0.00 0.00 0.00 35 1004.4
20260509003016 13 225 1.6 11.3 0.00 0.00 0.00 35 1004.4
20260509002511 13 236 1.6 11.3 0.00 0.00 0.00 35 1004.4
20260509002007 14 248 4.8 9.7 0.00 0.00 0.00 34 1004.4
20260509001520 14 209 3.2 6.4 0.00 0.00 0.00 36 1004.4
20260509001003 14 220 3.2 6.4 0.00 0.00 0.00 35 1004.5
20260509000502 14 224 1.6 8.0 0.00 0.00 0.00 36 1004.5
20260509000004 14 214 3.2 8.0 0.00 0.00 0.00 33 1004.5
20260508235504 14 244 0.0 8.0 0.00 0.00 0.00 34 1004.6
20260508235004 14 234 1.6 12.9 0.00 0.00 0.00 34 1004.6
20260508234527 14 264 1.6 12.9 0.00 0.00 0.00 34 1004.7
20260508234004 14 217 3.2 11.3 0.00 0.00 0.00 33 1004.6
20260508233505 14 323 4.8 11.3 0.00 0.00 0.00 33 1004.7
20260508233014 14 281 3.2 14.5 0.00 0.00 0.00 34 1004.7
20260508232505 15 246 6.4 14.5 0.00 0.00 0.00 32 1004.7
20260508232006 15 212 1.6 11.3 0.00 0.00 0.00 33 1004.8
20260508231517 15 201 3.2 12.9 0.00 0.00 0.00 33 1004.9
20260508231010 15 207 4.8 12.9 0.00 0.00 0.00 32 1004.7
20260508230507 15 243 0.0 11.3 0.00 0.00 0.00 34 1004.8
20260508230024 15 207 1.6 11.3 0.00 0.00 0.00 33 1004.7
20260508225506 15 242 4.8 11.3 0.00 0.00 0.00 33 1004.7
20260508225004 15 219 4.8 12.9 0.00 0.00 0.00 32 1004.7
20260508224516 15 255 4.8 19.3 0.00 0.00 0.00 32 1004.8
20260508224006 15 252 8.0 19.3 0.00 0.00 0.00 31 1004.8
20260508223503 15 198 4.8 12.9 0.00 0.00 0.00 32 1004.8
20260508223010 15 199 8.0 14.5 0.00 0.00 0.00 31 1004.8
20260508222504 16 246 4.8 17.7 0.00 0.00 0.00 32 1004.8
20260508222005 16 228 6.4 20.9 0.00 0.00 0.00 32 1004.9
20260508221513 16 272 8.0 25.7 0.00 0.00 0.00 30 1004.9
20260508221008 16 202 8.0 25.7 0.00 0.00 0.00 31 1004.9
20260508220507 16 280 9.7 22.5 0.00 0.00 0.00 30 1004.9
20260508220020 16 273 9.7 22.5 0.00 0.00 0.00 29 1005.0
20260508215507 16 350 6.4 24.1 0.00 0.00 0.00 31 1005.1
20260508215007 16 194 1.6 24.1 0.00 0.00 0.00 32 1005.1
20260508214527 16 271 8.0 14.5 0.00 0.00 0.00 29 1005.1
20260508214003 16 228 8.0 17.7 0.00 0.00 0.00 30 1005.1
20260508213504 15 360 6.4 24.1 0.00 0.00 0.00 30 1005.1
20260508213028 15 315 8.0 24.1 0.00 0.00 0.00 29 1005.2
20260508212503 16 253 9.7 20.9 0.00 0.00 0.00 30 1005.2
20260508212005 16 330 4.8 20.9 0.00 0.00 0.00 32 1005.2
20260508211516 16 229 8.0 20.9 0.00 0.00 0.00 30 1005.3
20260508211006 16 288 6.4 19.3 0.00 0.00 0.00 30 1005.2
20260508210506 16 249 6.4 19.3 0.00 0.00 0.00 29 1005.3
20260508210030 16 202 6.4 16.1 0.00 0.00 0.00 29 1005.4
20260508205506 16 275 3.2 19.3 0.00 0.00 0.00 30 1005.2
20260508205010 16 254 3.2 19.3 0.00 0.00 0.00 30 1005.3
20260508204524 16 251 6.4 25.7 0.00 0.00 0.00 29 1005.5
20260508204010 15 218 8.0 25.7 0.00 0.00 0.00 29 1005.5
20260508203508 16 248 9.7 24.1 0.00 0.00 0.00 28 1005.6
20260508203004 16 250 8.0 24.1 0.00 0.00 0.00 29 1005.6
20260508202504 15 227 12.9 24.1 0.00 0.00 0.00 28 1005.7
20260508202003 16 234 9.7 19.3 0.00 0.00 0.00 28 1005.8
20260508201509 16 229 3.2 20.9 0.00 0.00 0.00 29 1005.7
20260508201004 15 336 8.0 20.9 0.00 0.00 0.00 29 1005.9
20260508200503 15 229 6.4 29.0 0.00 0.00 0.00 29 1006.0
20260508200015 15 223 9.7 29.0 0.00 0.00 0.00 29 1006.1
20260508195507 15 269 6.4 22.5 0.00 0.00 0.00 30 1006.1
20260508195007 15 170 9.7 27.4 0.00 0.00 0.00 29 1006.1
20260508194522 15 257 9.7 35.4 0.00 0.00 0.00 30 1006.2
20260508194007 15 219 9.7 35.4 0.00 0.00 0.00 30 1006.2
20260508193508 15 275 11.3 32.2 0.00 0.00 0.00 29 1006.4
20260508193022 15 215 11.3 17.7 0.00 0.00 0.00 30 1006.2
20260508192508 15 271 6.4 29.0 0.00 0.00 0.00 30 1006.4
20260508192008 15 236 11.3 29.0 0.00 0.00 0.00 30 1006.5
20260508191506 15 202 9.7 24.1 0.00 0.00 0.00 30 1006.6
20260508191004 15 5 9.7 25.7 0.00 0.00 0.00 30 1006.5
20260508190505 15 207 9.7 25.7 0.00 0.00 0.00 30 1006.6
20260508190010 15 200 8.0 25.7 0.00 0.00 0.00 29 1006.6
20260508185509 15 222 9.7 25.7 0.00 0.00 0.00 29 1006.7
20260508185005 15 193 4.8 19.3 0.00 0.00 0.00 30 1006.7
20260508184520 15 232 9.7 20.9 0.00 0.00 0.00 30 1006.8
20260508184006 15 203 9.7 24.1 0.00 0.00 0.00 29 1006.8
20260508183508 15 238 8.0 24.1 0.00 0.00 0.00 32 1006.9
20260508183023 15 231 6.4 25.7 0.00 0.00 0.00 31 1006.9
20260508182508 14 217 8.0 25.7 0.00 0.00 0.00 31 1007.0
20260508182009 15 249 9.7 20.9 0.00 0.00 0.00 33 1007.1
20260508181535 15 5 6.4 17.7 0.00 0.00 0.00 32 1007.2
20260508181009 15 188 3.2 27.4 0.00 0.00 0.00 33 1007.2
20260508180504 15 275 14.5 27.4 0.00 0.00 0.00 30 1007.3
20260508180013 15 238 6.4 22.5 0.00 0.00 0.00 32 1007.3
20260508175504 14 207 11.3 24.1 0.00 0.00 0.00 31 1007.4
20260508175004 14 229 12.9 30.6 0.00 0.00 0.00 31 1007.4
20260508174519 14 195 9.7 30.6 0.00 0.00 0.00 31 1007.3
20260508174005 14 219 8.0 24.1 0.00 0.00 0.00 30 1007.5
20260508173509 13 220 4.8 25.7 0.00 0.00 0.00 32 1007.7
20260508173021 14 277 11.3 25.7 0.00 0.00 0.00 29 1007.6
20260508172511 14 334 8.0 25.7 0.00 0.00 0.00 31 1007.7
20260508172009 14 284 12.9 33.8 0.00 0.00 0.00 31 1007.7
20260508171526 14 196 11.3 33.8 0.00 0.00 0.00 29 1007.9
20260508171010 14 208 3.2 24.1 0.00 0.00 0.00 31 1007.7
20260508170512 13 234 9.7 22.5 0.00 0.00 0.00 31 1007.9
20260508170026 13 234 8.0 22.5 0.00 0.00 0.00 32 1008.0
20260508165508 13 228 6.4 29.0 0.00 0.00 0.00 32 1008.1
20260508165005 13 237 14.5 29.0 0.00 0.00 0.00 32 1008.1
20260508164514 13 234 9.7 29.0 0.00 0.00 0.00 34 1008.2
20260508164004 13 202 8.0 22.5 0.00 0.00 0.00 33 1008.3
20260508163505 13 253 8.0 22.5 0.00 0.00 0.00 33 1008.2
20260508163018 13 248 8.0 25.7 0.00 0.00 0.00 35 1008.2
20260508162507 13 199 11.3 25.7 0.00 0.00 0.00 34 1008.4